This demonstration page uses our WeatherBlox Daily Observations layout. Learn more.

Hourly Observations for June 25, 2017

Temp ( °F °C ) Dew Point ( °F °C ) Humidity (%) Winds ( mph kmh ) Pressure ( in mb ) Visibility ( mi km ) Precip ( " mm )
12:54 am 00:54 Clear 53 11.7 46 7.8 77 77 NNW 3 6 30.23 1024 10 16.0934 0 0
1:54 am 01:54 Clear 54 12.2 45 7.2 72 72 N 6 9 30.24 1024 10 16.0934 0 0
2:54 am 02:54 Clear 52 11.1 45 7.2 77 77 NNW 6 9 30.25 1025 10 16.0934 0 0
3:54 am 03:54 Clear 53 11.7 43 6.1 69 69 NNE 5 7 30.26 1025 10 16.0934 0 0
4:54 am 04:54 Mostly Clear 50 10 44 6.7 80 80 N 8 13 30.29 1026 10 16.0934 0 0
5:54 am 05:54 Clear 49 9.4 43 6.1 80 80 NNE 6 9 30.3 1026 10 16.0934 0 0
6:54 am 06:54 Sunny 56 13.3 43 6.1 62 62 W 3 6 30.31 1027 10 16.0934 0 0
7:54 am 07:54 Sunny 60 15.6 44 6.7 56 56 Calm 30.32 1027 10 16.0934 0 0
8:54 am 08:54 Sunny 64 17.8 44 6.7 48 48 NNW 6 9 30.32 1027 10 16.0934 0 0
9:54 am 09:54 Sunny 69 20.6 46 7.8 44 44 NNW 8 13 30.33 1027 10 16.0934 0 0
10:54 am 10:54 Sunny 72 22.2 42 5.6 34 34 NNW 14 22 30.32 1027 10 16.0934 0 0
11:54 am 11:54 Sunny 69 20.6 42 5.6 38 38 NNW 10 17 30.32 1027 10 16.0934 0 0
12:54 pm 12:54 Sunny 73 22.8 42 5.6 33 33 NNW 9 15 30.3 1026 10 16.0934 0 0
1:54 pm 13:54 Sunny 74 23.3 42 5.6 32 32 VRB 6 9 30.29 1026 10 16.0934 0 0
2:54 pm 14:54 Sunny 77 25 40 4.4 26 26 NW 12 19 30.27 1025 10 16.0934 0 0
3:54 pm 15:54 Sunny 77 25 41 5 28 28 VRB 6 9 30.25 1025 10 16.0934 0 0
4:54 pm 16:54 Sunny 78 25.6 41 5 27 27 NW 8 13 30.24 1024 10 16.0934 0 0
5:54 pm 17:54 Sunny 79 26.1 42 5.6 27 27 NW 8 13 30.22 1024 10 16.0934 0 0
6:54 pm 18:54 Sunny 78 25.6 41 5 27 27 N 5 7 30.21 1023 10 16.0934 0 0
7:54 pm 19:54 Sunny 74 23.3 45 7.2 36 36 N 3 6 30.2 1023 10 16.0934 0 0
8:54 pm 20:54 Sunny 69 20.6 46 7.8 44 44 ENE 5 7 30.2 1023 10 16.0934 0 0
9:54 pm 21:54 Clear 66 18.9 46 7.8 49 49 SE 5 7 30.19 1022 10 16.0934 0 0
10:54 pm 22:54 Clear 61 16.1 48 8.9 63 63 S 9 15 30.19 1022 10 16.0934 0 0
11:54 pm 23:54 Clear 64 17.8 49 9.4 58 58 SW 7 11 30.19 1023 10 16.0934 0 0

Powered by AerisWeather